星链-5660 (STARLINK-5660 )

导读

STARLINK-5660是美国SpaceX公司星链星座的卫星,于2023年1月26日发射入轨。星链是全球低轨卫星互联网项目,通过数千颗低轨卫星组网,为全球偏远、无地面网络覆盖区域提供高速互联网接入。该卫星采用霍尔推进器,具备自主避碰能力,设计服役寿命超5年,服役结束后会主动离轨再入大气层焚毁,减少太空垃圾,助力星链实现全球无缝网络覆盖的目标。

基本信息
目录编号:
55335
目录名称:
STARLINK-5660
国际标识:
2023-013E
轨道中心:
EARTH
卫星名称:
星链-5660
卫星全名:
星链-5660 (STARLINK-5660 )
卫星状态:
在轨 (已飞行1324 天)
发射日期:
2023-01-26 UTC
国别 :
美国 (US)
星等 :
--
该卫星已列入 空间交会检测服务 Space Conjunction Data Service (SCDS) ,当前飞行风险评估等级: 无高风险
轨道信息
数据来源 国际轨道数据 AOE轨道数据
星历时间 2026-09-11T20:53:38+0800
7小时前
查看轨道信息
2026-09-10T08:00:00+0800
1天前
查看轨道信息
半长轴 6861.2km 6861.209km
偏心率 0.0000994 0.0000778
轨道倾角 43.004° 43.004°
近地点辐角 284.454° 287.993°
升交点赤经 334.078° 342.767°
平近点角 75.620° 248.365°
近地点 482.38km 482.538km
远地点 483.746km 483.606km
周期 94.267分钟 94.267分钟
每日圈数 15.275756 15.275724
详细信息
固有亮度:
5
最大亮度:
2.5
卫星平台:
Starlink v1.5
覆盖范围:
全球
运营商:
太空探索技术公司
运营商所在国:
美国
制造商(研发单位):
太空探索技术公司
制造商所在国:
美国
使用方式:
暂无
卫星简介
星链(Starlink)计划是由太空探索技术公司(SpaceX)提出的一个巨型低轨卫星互联网星座项目,计划在2019年至2024年间在太空搭建由约1.2万颗卫星组成的“星链”网络,其中1584颗将部署在地球上空550千米处的近地轨道,并从2020年开始工作。该卫星仍在工作。
2D轨道图
3D轨道图
轨道高度分析图
轨道倾角分析图
轨道综合分析图
查看轨道综合分析图
交会数据列表
事件ID 空间交会对象 最接近时刻(TCA) 交会距离 交会风险概率(CRP) 交会风险指数(CRI) 操作
CDM_260913-021405-533506-656221
2026-09-13T
02:14:05+0000
0.756 km
远距离
2.728707E-5 中风险 0.64
CDM_260913-091705-533506-656221
2026-09-13T
09:17:46+0000
1.051 km
极远距离
8.953961E-6 低风险 0.54
CDM_260914-060105-533505-619321
HAWK-7B (56193)
2026-09-14T
06:01:50+0000
1.397 km
极远距离
8.335391E-6 低风险 0.53
CDM_260909-215005-533506-863123
OBJECT E (68631)
2026-09-09T
21:50:31+0000
2.624 km
极远距离
1.350665E-6 低风险 0.38
CDM_260913-074305-533506-656221
2026-09-13T
07:43:37+0000
2.065 km
极远距离
1.169829E-6 低风险 0.36
CDM_260913-034805-533506-656221
2026-09-13T
03:48:14+0000
2.395 km
极远距离
8.721237E-7 极低风险 0.34
CDM_260912-163105-533506-959921
2026-09-12T
16:31:17+0000
2.772 km
极远距离
4.430777E-7 极低风险 0.28
与全量物体交会距离演化趋势
与全量物体交会风险概率演化趋势